Location: Clanezzo
(45.7500°N, 9.6000°E)
Time: 05:08:06
(UTC+00:00)

Gbstr 26 Del rocket - Pass Details

Date: 27 September 2021
Orbit: 492 x 1263 km, 51.8° (Epoch: 20 October)

Event Time Altitude Azimuth Distance (km) Brightness Sun altitude
Exits shadow 02:48:17 31° 186° (S) 1,831 5.1 -25.6°
Drops below altitude 10° 02:52:10 10° 160° (SSE) 2,831 6.4 -25.0°
Sets 02:54:46 0° 153° (SSE) 3,669 7.0 -24.6°
